Weather History for Sheldon, IA

Change the Weather History Date:

Tuesday, May 14, 2013

  Actual Average Record
Temperature  
Mean Temperature 76 °F -  
Max Temperature 102 °F 71 °F 102 °F (2013)
Min Temperature 51 °F 45 °F 30 °F (1973)
Cooling Degree Days 12    
Growing Degree Days 26 (Base 50)    
Moisture  
Dew Point 46 °F    
Average Humidity 41    
Maximum Humidity 88    
Minimum Humidity 14    
Precipitation  
Precipitation 0.00 in - - ()
Sea Level Pressure  
Sea Level Pressure 29.68 in    
Wind  
Wind Speed 12 mph (WSW)    
Max Wind Speed 31 mph    
Max Gust Speed 40 mph    
Visibility 10 miles    
Events      
Averages and records for this station are not official NWS values.
T = Trace of Precipitation, MM = Missing Value Source: NWS Daily Summary

Daily Weather History Graph

Daily Weather History Graph

Search for Another Location

Airport:

Trip Planner

Search our weather history database for the weather conditions in past years. The results will help you decide how hot, cold, wet, or windy it might be!

Date:

Astronomy

May. 14, 2013 Rise Set
Actual Time 6:00 AM CDT 8:39 PM CDT
Civil Twilight 5:27 AM CDT 9:12 PM CDT
Nautical Twilight 4:46 AM CDT 9:53 PM CDT
Astronomical Twilight 3:59 AM CDT 10:40 PM CDT
Moon 9:41 AM CDT (5/14) No Moon Set
Length of Visible Light 15h 44m
Length of Day
14h 39m
Waxing Crescent, 19% of the Moon is Illuminated
May 14
Waxing Crescent
May 17
First Quarter
May 24
Full
May 31
Last Quarter
Jun 8
New

Hourly Weather History & Observations

Time (CDT) Temp. Heat Index Dew Point Humidity Pressure Visibility Wind Dir Wind Speed Gust Speed Precip Events Conditions
12:15 AM 64.4 °F - 50.0 °F 59% 29.76 in 10.0 mi SW 9.2 mph - N/A   Clear
12:35 AM 64.4 °F - 50.0 °F 59% 29.76 in 10.0 mi SSW 8.1 mph - N/A   Clear
12:55 AM 62.6 °F - 48.2 °F 59% 29.76 in 10.0 mi SW 6.9 mph - N/A   Clear
1:15 AM 60.8 °F - 48.2 °F 63% 29.76 in 10.0 mi Calm Calm - N/A   Clear
1:35 AM 59.0 °F - 48.2 °F 67% 29.76 in 10.0 mi Calm Calm - N/A   Clear
1:55 AM 59.0 °F - 48.2 °F 67% 29.76 in 10.0 mi Calm Calm - N/A   Clear
2:15 AM 59.0 °F - 48.2 °F 67% 29.76 in 10.0 mi South 4.6 mph - N/A   Clear
2:35 AM 60.8 °F - 48.2 °F 63% 29.76 in 10.0 mi SSE 6.9 mph - N/A   Clear
2:55 AM 55.4 °F - 48.2 °F 77% 29.75 in 10.0 mi SE 3.5 mph - N/A   Unknown
3:15 AM 55.4 °F - 48.2 °F 77% 29.75 in 10.0 mi SSE 6.9 mph - N/A   Unknown
3:35 AM 55.4 °F - 48.2 °F 77% 29.75 in 10.0 mi South 5.8 mph - N/A   Clear
3:55 AM 55.4 °F - 48.2 °F 77% 29.75 in 10.0 mi South 4.6 mph - N/A   Clear
4:15 AM 57.2 °F - 50.0 °F 77% 29.76 in 10.0 mi South 3.5 mph - N/A   Clear
4:35 AM 55.4 °F - 48.2 °F 77% 29.75 in 10.0 mi SSE 4.6 mph - N/A   Clear
4:55 AM 53.6 °F - 48.2 °F 82% 29.74 in 10.0 mi SSE 6.9 mph - N/A   Clear
5:15 AM 51.8 °F - 48.2 °F 88% 29.74 in 10.0 mi SSE 6.9 mph - N/A   Clear
5:35 AM 51.8 °F - 48.2 °F 88% 29.73 in 10.0 mi SE 6.9 mph - N/A   Unknown
5:55 AM 51.8 °F - 48.2 °F 88% 29.73 in 10.0 mi SE 8.1 mph - N/A   Clear
6:15 AM 53.6 °F - 50.0 °F 88% 29.73 in 10.0 mi SE 8.1 mph - N/A   Clear
6:35 AM 53.6 °F - 50.0 °F 88% 29.72 in 10.0 mi SSE 8.1 mph - N/A   Clear
6:55 AM 57.2 °F - 51.8 °F 82% 29.72 in 10.0 mi SSE 9.2 mph - N/A   Clear
7:15 AM 62.6 °F - 55.4 °F 77% 29.72 in 10.0 mi South 9.2 mph - N/A   Clear
7:35 AM 64.4 °F - 55.4 °F 73% 29.71 in 10.0 mi South 8.1 mph - N/A   Clear
7:55 AM 66.2 °F - 55.4 °F 68% 29.70 in 10.0 mi South 11.5 mph - N/A   Clear
8:15 AM 69.8 °F - 55.4 °F 60% 29.70 in 10.0 mi SSW 15.0 mph - N/A   Clear
8:35 AM 73.4 °F - 57.2 °F 57% 29.68 in 10.0 mi South 15.0 mph - N/A   Clear
8:55 AM 75.2 °F - 55.4 °F 50% 29.68 in 10.0 mi South 16.1 mph - N/A   Clear
9:15 AM 78.8 °F - 55.4 °F 44% 29.67 in 10.0 mi South 15.0 mph - N/A   Clear
9:35 AM 80.6 °F 80.3 °F 53.6 °F 39% 29.66 in 10.0 mi SSW 17.3 mph - N/A   Clear
9:55 AM 82.4 °F 81.4 °F 53.6 °F 37% 29.64 in 10.0 mi SSW 17.3 mph - N/A   Clear
10:15 AM 86.0 °F 84.2 °F 53.6 °F 33% 29.64 in 10.0 mi SSW 15.0 mph 23.0 mph N/A   Clear
10:35 AM 87.8 °F 85.7 °F 53.6 °F 31% 29.63 in 10.0 mi SSW 15.0 mph 23.0 mph N/A   Clear
10:55 AM 89.6 °F - 51.8 °F 27% 29.62 in 10.0 mi SW 18.4 mph 25.3 mph N/A   Clear
11:15 AM 91.4 °F - 51.8 °F 26% 29.62 in 10.0 mi SW 18.4 mph 24.2 mph N/A   Clear
11:35 AM 91.4 °F - 51.8 °F 26% 29.62 in 10.0 mi SW 16.1 mph 28.8 mph N/A   Clear
11:55 AM 96.8 °F - 48.2 °F 19% 29.61 in 10.0 mi SW 25.3 mph 32.2 mph N/A   Clear
12:15 PM 96.8 °F - 48.2 °F 19% 29.60 in 10.0 mi SW 27.6 mph 36.8 mph N/A   Clear
12:35 PM 98.6 °F - 50.0 °F 19% 29.59 in 10.0 mi SSW 24.2 mph 31.1 mph N/A   Clear
12:55 PM 100.4 °F - 48.2 °F 17% 29.58 in 10.0 mi WSW 26.5 mph 36.8 mph N/A   Clear
1:15 PM 102.2 °F - 44.6 °F 14% 29.57 in 10.0 mi SW 28.8 mph 40.3 mph N/A   Clear
1:35 PM 98.6 °F - 44.6 °F 16% 29.57 in 10.0 mi West 31.1 mph 39.1 mph N/A   Clear
1:55 PM 98.6 °F - 46.4 °F 17% 29.58 in 10.0 mi West 28.8 mph 36.8 mph N/A   Clear
2:15 PM 96.8 °F - 44.6 °F 17% 29.59 in 10.0 mi West 25.3 mph 35.7 mph N/A   Clear
2:35 PM 96.8 °F - 46.4 °F 18% 29.59 in 10.0 mi WNW 20.7 mph 29.9 mph N/A   Clear
2:55 PM 96.8 °F - 46.4 °F 18% 29.59 in 10.0 mi West 20.7 mph 27.6 mph N/A   Clear
3:15 PM 96.8 °F - 46.4 °F 18% 29.60 in 10.0 mi NW 21.9 mph 28.8 mph N/A   Clear
3:35 PM 98.6 °F - 46.4 °F 17% 29.60 in 10.0 mi NW 20.7 mph 28.8 mph N/A   Clear
3:55 PM 98.6 °F - 44.6 °F 16% 29.60 in 10.0 mi NNW 17.3 mph 27.6 mph N/A   Clear
4:15 PM 98.6 °F - 44.6 °F 16% 29.60 in 10.0 mi WNW 18.4 mph 27.6 mph N/A   Clear
4:35 PM 98.6 °F - 44.6 °F 16% 29.60 in 10.0 mi NNW 20.7 mph 29.9 mph N/A   Clear
4:55 PM 96.8 °F - 42.8 °F 16% 29.61 in 10.0 mi NW 19.6 mph 28.8 mph N/A   Clear
5:15 PM 96.8 °F - 41.0 °F 15% 29.61 in 10.0 mi NNW 21.9 mph 34.5 mph N/A   Clear
5:35 PM 95.0 °F - 41.0 °F 15% 29.62 in 10.0 mi NNW 26.5 mph 32.2 mph N/A   Clear
5:55 PM 95.0 °F - 41.0 °F 15% 29.63 in 10.0 mi NNW 23.0 mph 29.9 mph N/A   Clear
6:15 PM 93.2 °F - 42.8 °F 17% 29.63 in 10.0 mi NNW 21.9 mph 32.2 mph N/A   Clear
6:35 PM 91.4 °F - 42.8 °F 18% 29.64 in 10.0 mi NNW 27.6 mph 36.8 mph N/A   Clear
6:55 PM 89.6 °F - 41.0 °F 18% 29.65 in 10.0 mi NNW 26.5 mph 35.7 mph N/A   Clear
7:15 PM 87.8 °F - 35.6 °F 16% 29.66 in 10.0 mi NNW 26.5 mph 35.7 mph N/A   Clear
7:35 PM 86.0 °F - 35.6 °F 17% 29.66 in 10.0 mi NNW 21.9 mph 29.9 mph N/A   Clear
7:55 PM 84.2 °F - 33.8 °F 16% 29.67 in 10.0 mi NNW 19.6 mph 26.5 mph N/A   Clear
8:15 PM 82.4 °F - 33.8 °F 17% 29.68 in 10.0 mi NNW 19.6 mph - N/A   Clear
8:35 PM 80.6 °F - 33.8 °F 18% 29.70 in 10.0 mi NNW 17.3 mph - N/A   Clear
8:55 PM 77.0 °F - 32.0 °F 19% 29.71 in 10.0 mi NNW 16.1 mph - N/A   Clear
9:15 PM 75.2 °F - 32.0 °F 21% 29.72 in 10.0 mi NNW 12.7 mph - N/A   Clear
9:35 PM 73.4 °F - 32.0 °F 22% 29.73 in 10.0 mi NNW 12.7 mph - N/A   Clear
9:55 PM 71.6 °F - 33.8 °F 25% 29.74 in 10.0 mi NW 9.2 mph - N/A   Clear
10:15 PM 68.0 °F - 33.8 °F 28% 29.75 in 10.0 mi NNW 8.1 mph - N/A   Clear
10:35 PM 68.0 °F - 33.8 °F 28% 29.76 in 10.0 mi NNW 8.1 mph - N/A   Partly Cloudy
10:55 PM 68.0 °F - 33.8 °F 28% 29.76 in 10.0 mi NNW 9.2 mph - N/A   Scattered Clouds
11:15 PM 66.2 °F - 33.8 °F 30% 29.77 in 10.0 mi NNW 10.4 mph - N/A   Mostly Cloudy
11:35 PM 64.4 °F - 35.6 °F 34% 29.78 in 10.0 mi NNW 11.5 mph - N/A   Overcast
11:55 PM 64.4 °F - 35.6 °F 34% 29.79 in 9.0 mi North 13.8 mph - N/A   Scattered Clouds